Back to catalog

FENGYUN 1C DEB

AliveSSO
NORAD 32130·DEBRIS·🇨🇳 China

Launched May 10, 1999 from Taiyuan Satellite Launch Center

Loading…

Next Passes (next 24 hours)

TLE

FreshSource: Space-Track

Epoch: Sep 14, 2026, 06:01 UTC

1 32130U 99025CRY 26257.25130612  .00000742  00000-0  25089-3 0  9996
2 32130  98.9223  79.0468 0081123 236.8713 122.4670 14.38218715  1871

Track FENGYUN 1C DEB in real time with AllMySat

Download on the App Store